STARLINK-33971, 63932

Orbit data source: Space-Track

STARLINK-33971, 63932 is a payload satellite owned by SpaceX/Seattle (US) in LEO that was launched on Tue, 13 May 2025 UTC via an FALCON 9 launch vehicle from the Air Force Western Test Range (AFWTR). Payload-class satellites include a variety of spacecraft equipped with specific instruments for various scientific and technological missions. These include communications satellites like Starlink; space stations such as the ISS; scientific satellites like the Hubble; Earth observation satellites from companies like Planet Labs, Umbra, and HawkEye 360; GPS; miniature CubeSats for education and research; and military/defense satellites.

Loading next visibility...
Identifier
63932, 2025-098G
Orbit
LEO
Country
Flag of USUS
Related business
Manufacturer
SpaceX/Seattle
Mission
Operational Commercial Communications
Bus & Motor
STARLINK V2MO, Unknown motor
Mass
575 kg wet, ~530 kg dry
Launch date (UTC)
2025-05-13 (7 months ago)
Launch vehicle
FALCON 9
Launch site
Air Force Western Test Range (AFWTR)
Object type
Payload
Rocket body
Debris
Shape & HBR
Box + 2 Pan, 17.7 m
Radar Cross Section
36.964 m², Large (>1 m²)

Expand to show TLE details & history
Last TLE update: 9 hours ago

TLE from 9 hours ago
0 STARLINK-33971
1 63932U 25098G   25349.80495279  .00010321  00000-0  87056-3 0  9990
2 63932  70.0004 126.1094 0003572 267.4216  92.6534 14.98372456 34009
Epoch: 2025-12-15T19:19Z
TLE epoch observation values (Epoch: 2025-12-15T19:19:07.921Z)
Latitude
-0.00002°
Longitude
111.62814°
Altitude
574.464 km
Speed
7.574 km/s
True Right ascension
08h 24m 26s
True Declination
0° 00' 00"
Sunlit
Object was in full shadow at epoch
Visualization orbit readout
Latitude
Unknown
Longitude
Unknown
Altitude
Unknown
Speed
Unknown
Apparent Right ascension
Unknown
Apparent Declination
Unknown
Sunlit
N/A
Visualization observer readout
Local Sidereal Time
03:12:44
Azimuth
Unknown
Elevation
Unknown
Doppler factor
Unknown
Orbital elements
Apogee altitude
572.355 km
Perigee altitude
567.391 km
Semi-major axis
6,948.01 km
Eccentricity
0.00036
Inclination
70.0004°
RAAN
126.1094°
Arg. of periapsis
267.4216°
True anomaly
92.69429°
Mean anomaly
92.6534°
Eccentric anomaly
92.67384°
Mean motion
3.74759 °/min
Orbital period
96.06 mins
BSTAR
0.00087056
Loading maneuver chart data...
Computing Atmospheric mass density...
Loading historical data...
Loading historical data...
Loading historical data...
Loading historical data...
Loading historical data...
Loading historical data...
Loading historical data...

Documentation

Showing up to 5 results
|